Regional Weather Roundup
Issued by NWS

Home | Current Version | Previous Version | Graphics & Text | Print | Product List | Glossary Off
Versions: 1 2 3 4 5 6 7 8 9 10 11 12 13 14 15 16 17 18 19 20 21 22 23 24 25 26 27 28 29 30 31 32 33 34 35 36 37 38 39 40 41 42 43 44 45 46 47 48 49 50

000
ASUS43 KMKX 290421
RWRWI

WISCONSIN REGIONAL WEATHER ROUNDUP
NATIONAL WEATHER SERVICE MILWAUKEE/SULLIVAN WI
1000 PM CST FRI NOV 28 2014

NOTE: "FAIR" INDICATES FEW OR NO CLOUDS BELOW 12,000 FEET WITH NO
SIGNIFICANT WEATHER AND/OR OBSTRUCTIONS TO VISIBILITY.

WIZ001-002-006>008-014>016-023>028-290500-
NORTHWEST WISCONSIN

CITY           SKY/WX    TMP DP  RH WIND       PRES   REMARKS
SUPERIOR ARPT  CLOUDY    19  14  81 CALM      29.81F
ASHLAND        LGT SNOW  18  14  84 CALM      29.83F FOG
HAYWARD        CLOUDY    18  13  80 SE5       29.79F WCI  11
SIREN          CLOUDY    19  14  82 E5        29.77F WCI  12
CUMBERLAND     CLOUDY    19  14  79 SE8       29.77F WCI   9
RICE LAKE      MOCLDY    19  15  84 SE6       29.80F WCI  11
CHETEK         PTCLDY    19  15  86 E6        29.79F WCI  11
LADYSMITH      CLOUDY    20  17  86 SE12      29.79F WCI   8
EAU CLAIRE     MOCLDY    22  17  81 E8        29.79F WCI  12
MENOMONIE      MOCLDY    23  19  85 E7        29.79F WCI  14
NEW RICHMOND   MOCLDY    19  15  86 E8        29.76F WCI   8
OSCEOLA        MOCLDY    20  16  85 E7        29.78F WCI  11
$$

WIZ003>005-009-010-017-018-290500-
NORTH CENTRAL WISCONSIN

CITY           SKY/WX    TMP DP  RH WIND       PRES   REMARKS
MANITOWISH WTR CLOUDY    15  13  91 S6        29.78F WCI   6
ARBOR VITAE    CLOUDY    17  13  87 S3        29.78F
WOODRUFF       CLOUDY    17  13  87 S3        29.78F
RHINELANDER    MOCLDY    14  11  87 SE3       29.79F
EAGLE RIVER    CLOUDY    15  11  84 CALM      29.78F
LAND O LAKES   CLOUDY    15  12  89 S3        29.79F
PHILLIPS       CLOUDY    17  14  88 S6        29.79F WCI   8
TOMAHAWK       MOCLDY    15  12  89 CALM      29.81F
MEDFORD        CLOUDY    19  16  89 SE5       29.80S WCI  12
MERRILL        MOCLDY    16  14  92 CALM      29.83S
$$

WIZ029-030-035-036-043>047-290500-
CENTRAL WISCONSIN

CITY           SKY/WX    TMP DP  RH WIND       PRES   REMARKS
WAUSAU         CLOUDY    18  15  88 SE8       29.81F WCI   8
MOSINEE        MOCLDY    18  18 100 E5        29.84S WCI  11
MARSHFIELD     CLOUDY    21  17  84 E6        29.82F WCI  13
STEVENS POINT  CLOUDY    19  17  93 E6        29.84F WCI  10
WAUPACA        CLOUDY    25  21  85 E5        29.86F WCI  19
WAUTOMA        CLOUDY    27  25  92 CALM      29.87F
WISC RAPIDS    CLOUDY    23  19  85 E5        29.85F WCI  17
CAMP DOUGLAS   MOCLDY    23  23 100 E5        29.83F WCI  17
$$

WIZ011>013-019>022-031-037>040-048>050-290500-
NORTHEAST WISCONSIN

CITY           SKY/WX    TMP DP  RH WIND       PRES   REMARKS
ANTIGO         CLOUDY    16  15  96 SE9       29.82F WCI   4
SHAWANO        CLOUDY    21  19  89 E5        29.89F WCI  15
OCONTO         CLOUDY    21  20  96 CALM      29.90F
STURGEON BAY   CLOUDY    25  21  86 CALM      29.90F
GREEN BAY      CLOUDY    25  23  92 N6        29.90S FOG     WCI  18
MANITOWOC      CLOUDY    31  27  85 SW6       29.91S WCI  25
APPLETON       CLOUDY    27  21  80 SE5       29.89S WCI  21
CLINTONVILLE   CLOUDY    21  19  93 NE3       29.88F
OSHKOSH        MIX PCPN  28  24  85 MISG      29.87F FOG
$$

WIZ032>034-041-042-053>061-290500-
SOUTHWEST WISCONSIN

CITY           SKY/WX    TMP DP  RH WIND       PRES   REMARKS
LA CROSSE      MOCLDY    26  20  77 E6        29.82F WCI  19
SPARTA         MOCLDY    24  21  89 CALM      29.83F
VIROQUA        MOCLDY    24  23  95 E7        29.78F WCI  16
BOSCOBEL       CLOUDY    25  21  85 NE3       29.83F
PRAIRIE DU CHI PTCLDY    28  23  82 E3        29.80F
PLATTEVILLE    PTCLDY    28  26  94 CALM      29.81F
$$

WIZ056-057-062-063-064-067-068-290500-
SOUTH CENTRAL WISCONSIN

CITY           SKY/WX    TMP DP  RH WIND       PRES   REMARKS
REEDSBURG      CLOUDY    25  23  93 NE3       29.83F
BARABOO/DELLS  CLOUDY    24  23  93 NE3       29.83F FOG
LONE ROCK      CLOUDY    30  23  75 E8        29.83F WCI  22
MINERAL POINT  CLOUDY    32  30  93 SE9       29.80F FOG     WCI  24
MADISON        CLOUDY    28  25  88 SE5       29.84F WCI  23
MIDDLETON      CLOUDY    29  26  88 CALM      29.85S
WATERTOWN      CLOUDY    28  27  98 E5        29.85F WCI  23
MONROE         CLOUDY    32  30  93 S10       29.82F WCI  24
JANESVILLE     CLOUDY    32  32 100 S9        29.85F WCI  24
$$

WIZ051-052-058>065-066-070>072-290500-
SOUTHEAST WISCONSIN

CITY           SKY/WX    TMP DP  RH WIND       PRES   REMARKS
MILWAUKEE      CLOUDY    32  26  78 S8        29.90S WCI  25
WAUKESHA       CLOUDY    28  27  93 SE5       29.89F FOG     WCI  23
MILWAUKEE/TIMM CLOUDY    32  27  80 S8        29.89F WCI  25
RACINE         CLOUDY    33  27  78 S8        29.93F WCI  26
BURLINGTON     CLOUDY    28  26  94 E5        29.88F WCI  23
KENOSHA        CLOUDY    31  27  85 S5        29.90F WCI  26
FOND DU LAC    CLOUDY    30  26  85 S7        29.87S WCI  23
SHEBOYGAN      LGT SNOW  30  27  88 S8        29.89F FOG     WCI  22
WEST BEND      MIX PCPN  30  27  86 S7        29.87F WCI  23
JUNEAU         CLOUDY    28  26  93 SE9       29.86F FOG     WCI  19
$$

LSZ147-162-290500-
LAKE SUPERIOR

STATION/POSITION TIME  TEMP    WIND        PRES    WAVE
                       AIR SEA DIR/SP/G            HT/PER
                 (UTC) (F)     (DEG/KT/KT) (MB)    (FT/S)
DEVILS ISLAND    0400   21     170/  5/  7 1011.2F
PORT WING        0400   18     110/  2/ 10 1009.8F
SAXON HARBOR     0340   19        CALM     1010.5F
$$

LMZ867-665-643>646-290500-
LAKE MICHIGAN

STATION/POSITION TIME  TEMP    WIND        PRES    WAVE
                       AIR SEA DIR/SP/G            HT/PER
                 (UTC) (F)     (DEG/KT/KT) (MB)    (FT/S)
CHAMBERS ISLAND  0340   27     200/  2/  3 1013.2F
N MID LAKE BUOY  0350   31 42  170/ 21/ 27 1014.1F   6/ 6
NORTHPORT PIER   0322   28     200/  5/ 20 1013.9R
SISTER BAY       0258          200/ 11/ 14   N/A
ALGOMA LAKESHORE 0328             CALM       N/A
KEWAUNEE LAKESHO 0400   28      CALM  /  1 1012.1F
SHEBOYGAN LAKESH 0400   34 35  200/ 10/ 12 1013.3F
PORT WASHINGTON  0301   32     230/  5/ 12 1014.2R
MILWAUKEE LAKESH 0400   34     180/ 10/ 12   N/A
S MID LAKE BUOY  0350   36 42  180/ 21/ 25 1013.7F   6/ 7
KENOSHA   LAKESH 0400   34     190/  8/ 12 1012.9S
$$

TC  - TEMPERATURE IN CELSIUS
VSB - VISIBILITY IN STATUTE MILES
WCI - WIND CHILL INDEX
HX  - HEAT INDEX




USA.gov is the U.S. government's official web portal to all federal, state and local government web resources and services.